Helicity
121 122 106 199 190 240 196 132 148 70 80 172 187 210 192 96 102 170 17 -31 44 83 83 103 77 57 53 67 75 94 100 103 98 93 80 88 74 64 60 57 59 50 77 107 92 72 68 66 68
142 148 201 209 208 241 152 100 89 43 131 135 164 194 170 111 66 38 49 38 82 88 82 114 113 106 100 98 107 76 68 71 76 78 79 74 75 66 57 56 62 79 88 111 85 72 70 74 71
152 157 184 139 168 178 120 78 85 158 154 137 185 126 142 146 83 75 37 71 93 82 87 87 119 120 109 106 93 84 69 64 59 63 68 64 66 68 65 58 63 80 112 117 90 79 74 72 66
154 189 188 169 116 70 80 70 130 163 213 218 207 258 149 105 87 88 69 42 94 79 82 68 93 114 116 111 104 84 68 59 49 52 57 65 49 75 67 70 81 108 119 98 97 88 77 70 58
180 155 175 159 124 132 88 95 102 103 194 235 235 257 223 118 39 66 92 44 64 75 90 72 79 101 112 108 105 99 76 59 49 51 53 46 52 57 73 71 81 86 108 102 92 87 77 68 54
146 113 118 101 125 98 71 59 75 94 141 247 282 327 219 106 121 100 115 126 119 127 127 81 81 96 116 116 111 113 105 83 45 32 40 39 47 64 86 55 85 88 77 100 89 81 69 63 50
125 120 76 83 76 93 55 93 99 96 107 164 190 256 225 196 169 59 122 110 158 170 203 238 259 282 334 346 284 234 221 194 166 30 30 34 41 59 80 76 80 101 87 64 85 73 59 54 51
140 130 95 79 81 64 77 108 95 84 76 90 147 236 279 251 112 95 85 129 152 174 213 226 263 292 317 354 320 291 276 232 191 79 43 41 61 71 68 79 93 57 74 56 77 67 50 44 44
130 152 120 97 70 56 110 106 98 76 75 99 71 156 178 140 125 125 82 80 130 176 202 246 272 294 267 266 276 257 238 244 213 167 68 62 111 105 98 131 123 61 75 70 73 51 53 43 35
189 179 96 106 112 83 50 60 59 59 74 25 55 156 184 187 168 156 159 131 60 125 167 192 221 246 228 222 163 177 191 197 195 190 115 97 112 135 134 151 121 62 114 126 83 81 72 52 44
175 167 130 135 107 95 45 30 28 50 20 58 47 64 183 207 245 193 126 126 72 78 105 123 153 178 171 154 117 129 137 158 159 166 118 85 123 163 185 192 172 107 143 166 141 118 92 55 44
158 141 144 141 130 113 80 85 68 63 80 22 24 14 81 186 222 232 199 149 140 91 51 67 75 87 84 99 80 59 67 86 89 95 104 76 157 191 216 227 210 189 173 159 136 119 88 64 41
152 162 157 142 128 103 102 82 76 71 88 45 -10 7 31 131 166 188 200 150 165 106 78 69 80 88 96 90 92 110 126 124 105 107 105 53 87 188 204 279 281 239 162 146 125 112 98 71 46
157 115 99 98 100 101 116 96 152 196 71 69 57 24 -9 53 141 161 193 214 172 180 129 95 83 100 122 122 113 112 116 125 134 124 151 163 143 172 183 312 354 275 143 136 122 97 105 76 67
105 98 90 83 87 121 130 116 169 90 128 116 130 106 32 19 131 154 164 200 184 169 185 110 94 104 129 123 114 131 116 109 101 145 139 218 211 158 235 203 284 163 203 100 139 94 128 102 84
103 95 83 50 126 135 178 163 134 106 156 166 160 158 115 14 72 159 128 124 163 136 145 134 99 84 93 104 135 134 110 112 94 99 120 140 190 186 302 261 218 273 89 97 105 144 115 109 99
106 121 132 148 91 138 176 178 77 104 194 160 129 94 98 68 95 181 116 89 140 104 97 96 123 107 103 117 125 108 105 95 103 100 92 83 126 150 313 314 239 180 147 86 87 144 120 128 109
98 128 156 172 105 113 58 41 93 68 75 58 43 49 87 139 119 145 141 84 127 102 95 101 98 121 131 154 127 113 120 92 127 134 90 27 151 178 369 336 196 176 143 101 75 102 138 132 119
31 65 72 120 111 51 46 30 49 98 87 55 33 30 77 162 124 115 124 122 133 149 117 122 109 105 129 112 113 120 119 121 135 152 120 159 207 275 264 254 219 178 127 89 98 113 152 127 154
21 23 55 51 31 48 26 32 82 72 50 49 39 37 65 100 108 94 119 153 161 149 141 130 82 106 101 89 94 86 105 122 114 138 118 79 165 210 224 195 201 202 147 98 109 145 171 161 187
49 52 19 65 87 3 -15 -6 70 55 43 73 49 38 70 81 163 158 165 166 168 171 155 129 94 58 73 71 81 86 78 114 94 141 125 133 110 229 225 217 190 170 167 177 157 176 168 185 206
19 -17 14 43 30 39 49 -19 -1 26 25 27 33 15 87 82 113 133 171 169 152 107 108 82 81 71 51 56 80 81 93 107 121 140 164 220 196 285 318 302 196 168 171 152 159 167 179 198 220
17 6 5 23 -12 28 78 39 -41 18 5 -11 -27 15 27 36 31 44 64 75 99 110 120 114 102 133 99 39 69 104 -20 -49 126 79 59 306 197 232 223 226 217 181 165 155 171 190 199 216 213
48 -12 -9 2 31 70 16 64 6 4 -5 -15 -14 -22 24 49 39 59 76 95 164 206 145 161 133 120 190 179 317 172 63 131 167 79 103 296 210 201 203 178 200 141 137 174 129 117 121 121 143
-35 -51 -46 18 72 106 -3 16 19 -14 -31 -45 -67 -80 -34 19 32 42 114 159 111 216 241 172 289 186 241 179 199 224 104 157 64 88 101 226 179 141 120 135 154 107 79 140 112 122 123 114 114
-13 16 35 90 76 53 25 39 7 -59 -6 -39 -55 -54 -22 37 97 97 123 146 126 227 224 222 163 159 109 238 256 276 90 88 115 -13 66 -18 60 32 90 85 109 36 57 43 69 106 62 71 83
3 50 34 28 36 68 72 71 40 5 -43 -66 -48 -34 8 3 70 144 145 156 212 163 187 105 61 129 105 46 -26 72 95 68 21 96 123 116 90 133 200 108 83 45 79 72 100 66 38 76 88
47 16 28 31 55 47 55 59 68 34 3 -3 -20 -14 7 36 78 178 173 111 149 145 99 73 45 34 26 24 23 8 17 25 21 32 1 15 70 60 49 86 138 41 61 76 71 86 99 109 76
150 122 104 77 67 45 64 75 64 91 92 82 36 15 18 45 83 126 141 151 82 49 28 14 15 41 38 27 23 35 57 56 44 49 57 60 49 55 58 57 49 69 53 53 60 82 77 58 92
102 96 97 115 109 77 56 68 15 40 52 45 40 23 28 62 90 122 117 88 44 38 46 50 39 19 5 1 17 39 45 48 58 65 75 78 73 74 79 86 88 71 61 77 83 76 79 80 82
Wind_Speed
36 36 28 28 42 47 55 49 40 39 37 37 44 44 46 38 33 33 31 18 24 8 0 5 5 3 11 11 11 12 12 11 11 10 11 10 11 10 12 14 16 19 20 22 23 25 27 29 32
34 28 27 36 52 60 57 45 43 42 45 54 50 47 42 42 35 39 35 32 14 1 3 4 4 3 4 16 17 15 15 15 13 11 9 7 7 8 7 9 10 14 17 19 21 23 25 27 30
28 27 33 43 53 63 61 48 47 49 57 52 46 46 45 43 40 39 32 20 11 5 5 6 5 6 7 6 14 19 20 19 18 15 11 9 4 3 3 4 6 9 13 15 18 20 22 24 25
27 31 38 56 63 57 52 44 45 52 47 45 50 53 47 40 38 41 37 19 9 9 9 6 6 9 9 10 12 15 21 23 23 21 18 14 10 3 2 1 1 3 10 12 13 16 18 19 20
26 33 53 63 67 62 55 54 54 58 54 55 52 57 54 43 39 37 39 29 17 10 11 8 7 8 12 15 14 17 21 25 26 26 22 19 15 12 7 5 5 3 1 6 9 12 14 15 17
32 34 53 67 68 60 57 57 58 54 50 57 55 60 50 48 48 41 36 35 31 24 17 15 14 13 13 16 21 21 25 26 28 27 26 21 17 17 11 11 8 6 6 2 4 7 9 11 13
34 39 53 56 59 60 54 48 57 57 59 55 56 62 54 57 54 42 35 38 29 24 21 20 16 13 14 19 23 26 28 35 42 30 31 31 24 20 15 14 10 11 9 6 2 2 5 6 9
33 41 51 53 58 63 52 56 55 57 61 57 55 57 58 63 52 42 36 34 32 28 23 20 19 18 16 22 24 28 31 36 40 36 35 35 31 24 20 17 15 14 12 12 8 3 2 3 5
29 49 57 56 55 56 52 59 55 56 65 63 52 54 58 57 51 49 47 40 35 31 27 24 18 16 18 23 29 31 33 35 38 36 30 33 35 30 24 22 19 18 18 16 14 11 7 7 6
36 49 56 52 54 62 66 66 68 68 76 73 66 66 68 64 60 59 58 53 48 34 30 30 25 23 22 25 28 33 37 37 36 35 38 38 36 33 31 28 25 24 24 17 15 14 15 14 14
44 54 49 50 56 69 73 78 68 74 82 65 77 77 72 71 70 65 62 58 50 45 37 33 32 30 30 30 32 33 40 45 40 39 37 38 41 38 37 36 33 34 28 25 21 21 23 21 19
55 53 54 55 61 64 81 75 79 79 81 72 73 76 76 77 75 71 67 67 56 47 42 39 38 38 37 41 42 48 49 47 47 48 41 38 42 47 46 42 38 40 37 34 31 28 25 25 26
57 60 62 68 69 68 72 87 89 89 84 81 67 75 82 83 81 77 73 65 63 58 54 50 50 52 53 54 57 58 58 62 63 52 45 35 42 53 56 47 42 42 40 41 38 33 30 30 31
57 65 71 68 77 74 81 98 86 75 85 95 93 91 84 84 83 80 76 69 64 61 59 55 52 49 49 53 53 55 59 65 62 63 58 52 49 52 61 59 49 49 41 51 42 39 35 35 33
61 77 80 76 74 73 73 98 91 86 82 87 87 89 90 85 84 81 78 76 72 74 65 60 61 54 55 60 61 60 60 65 68 66 68 62 59 58 60 59 60 52 55 62 39 41 40 40 39
67 68 80 65 64 60 55 96 93 79 76 84 90 99 95 85 82 83 81 76 76 76 68 58 56 58 56 56 59 63 61 61 67 64 73 76 75 66 64 66 60 56 60 56 52 46 45 43 40
61 76 75 73 55 56 57 89 75 76 86 98 97 93 89 87 85 84 80 74 74 67 60 58 53 62 62 63 61 57 60 60 66 71 72 82 79 75 64 64 57 64 61 62 60 49 45 43 41
59 62 60 66 55 61 81 103 97 84 77 87 84 80 82 83 86 79 75 70 69 57 52 53 58 59 62 62 61 61 60 61 59 64 68 77 82 71 66 66 61 57 57 55 61 54 49 46 43
50 54 63 61 60 67 70 83 85 79 73 76 70 67 71 76 71 67 64 60 52 49 53 56 60 59 63 64 64 64 67 63 55 50 51 54 61 57 67 67 61 52 59 58 58 55 52 49 42
46 54 62 61 46 57 67 84 82 75 57 49 54 58 59 54 48 42 44 41 44 46 50 59 65 62 60 60 62 65 67 61 52 42 45 61 57 56 66 72 64 61 59 53 52 53 56 53 43
39 41 51 50 60 58 57 56 47 41 37 41 42 44 42 34 32 28 34 39 42 47 51 58 62 64 63 63 64 66 64 61 54 49 55 69 58 50 63 67 64 61 63 63 63 57 52 53 50
42 32 27 23 47 53 46 53 41 38 33 36 39 40 35 30 27 27 33 39 42 45 49 53 56 57 62 60 60 62 65 62 55 57 68 55 44 50 55 64 60 57 63 62 63 61 58 55 55
38 24 27 26 24 25 36 39 38 35 32 36 38 39 35 32 27 28 30 32 37 42 38 39 40 48 52 63 60 61 78 66 33 59 64 34 39 42 42 46 48 50 51 56 56 56 55 57 56
28 31 30 23 16 28 18 21 26 25 31 36 35 33 31 30 28 29 30 32 35 37 32 37 36 38 35 37 36 43 51 41 41 42 54 36 32 36 42 46 43 48 55 59 63 62 62 58 55
23 20 19 21 25 22 23 30 27 21 23 28 29 27 24 26 26 27 25 24 27 27 26 27 29 28 32 32 32 40 36 36 27 28 35 26 15 17 43 49 51 55 65 65 61 57 59 65 69
23 25 24 24 24 23 28 27 26 23 27 28 32 31 22 21 23 25 19 19 16 19 24 23 23 24 29 32 34 38 36 38 36 36 32 27 34 38 37 39 45 54 63 63 67 69 65 57 68
25 24 24 28 29 26 26 26 28 21 28 30 30 29 28 26 24 26 26 26 23 24 19 22 30 29 30 32 33 31 30 37 35 32 36 37 37 37 41 48 54 61 59 62 69 73 75 70 75
23 21 26 25 23 25 23 24 18 20 27 27 30 27 24 27 23 19 15 12 16 8 5 6 18 22 27 32 35 35 31 36 36 33 34 35 38 39 41 40 42 46 52 48 53 57 55 59 61
23 22 27 25 27 26 24 22 19 24 33 37 31 30 39 33 20 19 16 13 9 7 15 34 40 30 29 35 35 36 36 38 38 38 38 39 40 42 42 44 44 50 55 55 55 52 53 54 58
23 18 26 31 29 33 34 26 19 30 38 39 39 48 40 33 43 38 33 16 11 15 22 19 24 28 31 36 42 43 44 46 46 46 46 47 46 47 47 49 50 54 55 57 61 64 66 69 70
Wind_Direction
313 309 311 307 290 291 284 291 298 300 298 303 301 295 296 299 302 301 324 325 319 353 356 126 109 39 289 291 291 297 302 317 335 352 6 25 41 43 65 73 69 79 74 70 52 58 62 65 69
311 313 309 296 283 279 285 294 292 289 295 294 299 300 301 297 300 301 303 305 316 2 270 244 222 274 319 288 291 290 294 300 310 322 334 357 38 51 49 71 67 68 78 65 58 61 63 68 70
314 314 292 288 283 279 284 291 290 291 293 295 297 302 300 296 298 300 303 312 319 294 282 267 250 267 287 306 292 288 287 292 294 299 305 311 340 34 64 68 79 73 80 65 63 62 69 70 66
313 304 299 281 278 285 288 294 294 295 297 299 298 291 299 306 301 296 295 301 302 286 281 269 262 270 285 296 297 294 289 287 287 289 289 290 288 287 295 284 228 72 89 75 69 68 72 67 57
328 306 285 282 281 284 287 290 292 289 290 292 297 290 291 303 302 298 293 288 285 271 269 262 263 275 284 293 305 299 295 288 286 282 282 280 275 272 265 249 249 208 128 69 78 67 74 67 55
313 310 291 283 283 287 288 288 289 290 290 292 292 290 290 306 300 292 294 286 284 281 276 271 271 274 281 287 292 301 297 296 288 280 276 272 265 262 252 249 241 227 183 125 90 66 69 63 50
311 304 296 295 291 290 291 294 287 287 287 286 294 286 287 302 304 294 292 291 284 282 274 279 284 285 293 295 293 295 299 295 290 279 275 269 264 258 247 242 234 242 229 223 168 54 54 54 39
314 306 300 299 295 293 299 295 293 289 283 292 293 283 283 299 301 293 293 292 286 286 279 274 279 282 283 289 290 292 297 298 300 286 276 268 263 256 244 228 242 243 227 232 254 258 311 350 6
325 298 295 298 298 300 306 300 298 295 286 286 285 286 291 297 303 289 284 285 283 280 282 275 275 277 285 290 287 287 290 297 303 298 282 270 264 256 241 241 239 240 239 236 244 262 267 293 315
304 300 297 301 301 298 300 300 298 293 286 282 280 284 287 291 293 284 278 278 278 274 276 276 275 273 274 286 288 287 285 293 300 308 289 276 264 255 246 246 243 243 247 231 238 252 267 278 291
302 297 304 306 305 300 298 295 298 293 285 284 280 282 284 284 286 285 275 273 275 274 276 275 274 275 275 276 282 286 283 284 289 295 297 282 269 256 250 251 248 252 243 248 250 257 266 273 281
297 301 303 306 307 307 294 297 293 289 287 291 287 283 281 279 280 280 277 271 271 271 271 273 274 274 273 275 277 279 278 283 288 285 286 285 268 260 253 251 248 250 247 247 251 256 262 269 277
296 300 303 302 304 305 302 290 289 288 291 293 295 285 278 276 275 277 278 274 268 270 273 273 272 274 274 275 278 279 282 282 283 280 273 276 271 260 256 250 247 246 245 245 248 252 259 266 273
304 302 301 304 301 301 299 290 290 291 294 288 285 282 278 273 272 273 274 273 270 271 272 274 274 275 274 275 279 282 285 283 283 275 271 268 263 262 258 250 244 246 238 243 246 251 256 264 271
306 300 301 302 303 301 302 291 286 294 293 289 288 285 278 271 268 267 269 271 272 272 273 272 273 277 276 276 278 281 285 285 283 278 271 268 257 256 258 258 242 244 244 244 242 252 257 264 270
304 304 302 309 310 309 305 289 293 299 295 291 290 286 279 272 265 264 266 270 273 274 270 272 274 276 277 278 280 281 284 287 284 281 276 266 257 253 256 253 252 249 251 248 249 249 256 261 266
307 301 305 310 316 309 301 296 299 302 296 291 290 286 278 270 265 262 263 268 273 273 270 272 276 275 276 280 282 281 286 289 287 283 280 267 256 250 250 249 246 243 244 248 250 250 252 258 265
310 311 314 310 319 312 301 292 294 297 296 294 293 286 279 271 266 261 260 267 274 270 270 276 278 280 280 280 282 284 289 292 291 286 284 265 253 246 245 241 241 246 247 248 249 249 253 261 264
319 320 316 318 318 311 305 298 297 296 298 293 291 291 285 277 267 260 258 266 272 271 273 280 282 284 280 277 280 286 288 295 292 286 286 265 251 248 234 237 239 244 243 243 246 251 254 257 265
321 321 322 324 336 325 314 300 296 293 298 301 299 294 287 282 275 261 255 264 271 279 281 282 282 284 281 279 283 287 293 295 293 285 279 262 256 246 237 237 239 240 243 243 245 247 255 259 260
329 329 329 329 311 328 330 322 317 314 312 308 317 312 310 300 279 269 259 267 277 283 289 289 285 283 281 280 284 286 291 296 291 284 272 257 261 252 243 242 242 243 243 246 247 250 253 257 260
329 217 219 227 333 334 3 334 336 322 316 316 318 322 323 316 301 291 278 278 282 286 291 293 291 290 282 282 283 288 290 291 289 282 269 255 258 258 247 245 247 249 249 249 251 253 255 260 260
236 196 227 237 225 23 12 0 349 329 312 307 317 318 319 319 310 301 297 296 297 299 301 303 303 299 288 271 274 284 280 236 286 274 265 246 254 257 256 251 252 256 254 255 253 254 257 260 265
212 237 237 202 178 18 129 81 310 289 254 255 273 293 293 295 299 289 269 289 291 293 299 297 302 302 292 293 297 291 305 306 278 277 271 256 254 260 259 257 263 263 262 260 260 259 260 264 267
182 204 192 138 133 152 173 164 176 195 217 201 201 204 227 236 253 244 261 271 315 313 321 323 313 301 299 305 322 326 304 311 325 300 284 280 275 279 261 261 265 265 262 261 265 267 267 266 269
186 169 160 157 158 158 153 157 182 219 217 201 195 197 216 257 255 227 250 264 303 319 348 325 310 319 326 327 325 307 314 320 302 307 305 299 287 277 273 273 273 270 267 266 267 264 271 271 273
171 161 157 156 149 155 151 152 167 179 160 169 179 202 239 233 240 236 238 320 303 329 328 345 359 352 341 341 348 334 316 339 335 315 310 305 305 303 291 281 274 273 278 275 270 269 270 274 278
164 196 165 157 177 165 164 156 166 160 170 173 162 169 193 190 198 198 202 180 167 184 233 300 344 352 350 355 357 354 343 348 347 333 330 323 310 313 307 304 292 295 296 291 280 277 278 274 276
147 157 156 158 158 163 159 155 165 151 145 146 160 160 149 163 192 192 183 188 199 280 332 8 14 353 343 349 347 346 340 340 339 337 331 329 328 325 323 315 306 295 292 289 289 286 280 280 282
155 143 161 147 142 137 144 151 181 149 143 142 144 134 147 157 142 150 159 199 291 315 331 319 327 331 330 337 351 350 350 351 345 339 330 324 319 316 313 308 302 294 296 296 288 283 280 279 281